GFSSW_500_rhum_051.txt.gz
RH
22 19 14 6 5 3 2 3 5 1 1 1 1 1 2 2 2 2 2 2 3 3 3 3 3 3 2 2 3 3 2 2 2 2 2 2 2 2 3 3 5 6 8 10 11
14 9 5 5 5 3 3 5 3 1 1 1 2 1 2 2 2 2 2 3 3 2 2 2 2 2 2 2 2 2 2 2 2 4 5 7 6 5 5 6 7 9 12 13 11
28 10 5 4 4 3 4 5 2 2 1 1 2 2 2 2 2 2 2 2 2 2 2 2 2 2 3 3 3 2 3 4 8 14 15 14 11 8 8 8 10 12 13 11 11
51 40 20 9 4 4 5 5 2 2 1 1 1 1 2 2 2 2 2 2 2 2 2 1 2 4 6 7 9 11 12 15 17 17 16 12 9 8 10 12 12 11 10 10 9
23 5 4 4 4 5 6 5 2 2 2 1 1 1 1 2 2 2 2 2 1 1 1 1 6 10 12 12 13 13 15 15 16 15 12 10 9 11 11 10 9 8 7 8 7
23 9 4 5 6 6 6 5 3 2 2 1 1 1 1 1 2 2 2 1 1 1 1 2 10 12 10 12 12 13 12 14 14 12 11 10 11 10 9 7 6 7 6 6 7
5 4 6 6 8 7 6 4 3 2 2 2 1 1 1 1 2 2 1 1 1 1 1 2 10 11 8 10 12 12 11 11 11 11 11 10 8 8 7 6 6 6 7 8 10
5 5 7 10 9 10 8 5 3 2 2 2 1 1 1 1 2 2 1 1 1 2 1 3 10 10 9 10 11 10 11 10 10 9 8 8 6 6 6 6 6 7 8 10 10
7 6 7 10 13 13 11 8 4 3 2 2 1 1 1 1 2 2 2 2 2 2 1 3 9 11 10 11 11 9 10 10 9 8 6 5 6 6 6 7 8 9 9 11 13
6 7 10 13 16 14 13 11 7 4 2 2 1 1 1 2 2 2 2 2 2 2 2 3 9 11 10 10 10 10 10 10 8 6 5 6 7 8 9 9 9 9 10 14 17
8 8 11 16 16 15 15 12 8 6 4 2 2 2 2 2 2 2 2 2 2 2 2 3 10 12 10 10 10 9 9 9 6 5 6 7 9 10 10 10 10 11 15 18 19
7 10 13 16 17 18 16 12 8 6 5 4 2 2 2 2 2 2 2 2 2 2 2 4 11 13 10 9 10 9 9 10 7 6 7 8 10 10 10 11 11 13 18 19 20
9 11 15 17 17 18 18 13 7 5 4 4 4 3 3 2 2 3 2 2 2 2 2 5 12 13 11 9 11 10 10 10 7 8 8 9 9 9 9 10 11 11 14 19 19
11 14 16 16 16 19 20 16 10 5 4 4 4 4 3 3 3 3 2 2 2 2 3 8 15 16 15 12 11 13 12 11 9 9 10 10 10 10 9 9 9 10 12 13 16
14 15 16 16 16 18 19 19 18 12 11 9 7 5 7 7 6 6 5 5 4 3 5 11 17 18 16 14 12 12 12 12 11 10 11 11 11 11 11 10 10 9 10 11 12
14 15 16 15 17 19 19 20 20 19 19 18 16 13 12 10 9 10 9 8 7 6 6 10 17 19 17 17 15 13 12 12 11 12 11 12 13 10 14 12 11 11 11 11 12
14 15 16 16 18 19 20 20 20 20 20 20 23 25 23 18 16 18 18 15 12 10 13 17 20 20 18 17 17 16 16 14 13 12 12 12 13 11 13 15 14 14 14 13 13
14 15 17 19 23 23 23 22 21 22 23 22 23 23 24 25 24 21 20 22 22 21 20 20 20 20 21 19 19 20 22 22 17 14 13 13 11 11 14 15 18 18 17 16 16
15 16 17 17 19 19 20 20 21 21 21 22 24 23 23 23 23 23 24 24 24 24 22 19 20 21 21 22 22 23 26 26 25 21 18 16 15 14 15 16 19 19 20 19 18
13 13 13 13 13 13 13 14 14 16 17 18 20 21 22 24 24 24 24 24 24 24 22 21 18 21 24 25 28 27 26 26 30 30 22 18 18 18 19 19 21 23 24 24 22
10 10 10 10 10 10 10 11 11 12 12 12 13 15 16 19 21 22 23 24 24 25 24 24 21 20 22 26 28 30 31 32 31 29 27 20 16 20 22 23 24 25 27 29 24
18 18 19 18 18 17 18 18 19 20 20 19 18 16 13 12 12 13 15 18 22 24 24 26 22 21 22 24 26 29 30 31 32 32 30 23 16 24 33 34 31 30 32 33 27
32 30 29 30 31 34 35 35 34 32 31 30 29 28 27 26 24 22 19 18 17 18 18 21 19 18 19 21 26 26 29 31 35 32 26 31 18 29 35 34 36 32 35 35 30
35 48 51 44 41 41 39 38 38 37 37 37 36 36 35 33 31 29 26 24 23 22 22 20 20 21 20 21 21 20 25 31 37 31 33 27 25 32 37 40 34 34 33 33 30
42 38 31 29 40 55 61 63 65 61 58 61 63 60 57 54 49 44 40 37 34 31 28 27 26 27 26 27 27 25 24 32 32 35 38 27 33 37 37 37 40 40 34 29 23
35 37 37 44 50 51 43 35 31 32 36 48 56 65 63 62 62 64 64 61 56 52 47 43 41 40 41 37 35 36 36 34 38 42 46 50 45 56 45 42 38 35 36 38 33
3 4 5 8 21 31 43 52 57 62 60 56 49 38 34 37 39 44 50 56 59 61 60 59 59 61 56 60 60 54 54 53 56 60 67 91 84 70 68 64 57 52 47 36 33

GFSSW_500_rhum_054.txt.gz
RH
11 12 14 12 11 21 9 2 3 4 1 1 1 1 2 2 2 2 2 3 3 3 3 3 2 2 2 3 2 2 2 2 2 2 2 2 3 3 3 4 4 6 7 9 11
11 12 14 31 31 26 4 3 4 3 1 1 2 1 2 2 2 2 2 2 2 2 2 2 2 2 2 2 2 3 3 3 3 3 5 11 12 10 8 7 7 8 10 11 11
24 36 30 11 8 5 5 4 4 2 1 1 2 2 2 2 2 2 2 2 2 2 2 2 2 2 2 5 5 7 8 9 10 12 15 16 15 13 9 8 9 10 11 11 10
14 11 7 27 24 19 3 4 4 2 2 1 2 2 2 2 2 2 2 2 2 2 2 1 2 4 9 11 12 12 13 14 15 15 15 15 12 9 9 10 11 10 9 8 6
31 25 21 18 24 25 7 5 4 2 2 2 1 2 2 2 2 2 2 2 2 1 1 1 2 6 11 11 12 12 11 12 12 14 14 12 11 10 10 11 9 8 6 6 6
43 48 52 44 22 5 6 6 5 3 2 2 2 1 1 2 2 2 2 2 1 1 1 1 1 8 11 11 10 10 8 9 10 10 11 11 10 10 8 8 6 5 5 5 6
49 37 8 5 4 6 6 6 5 3 3 3 2 1 1 2 2 2 2 2 1 1 1 1 1 7 9 10 10 10 8 9 8 9 10 8 9 8 6 5 5 5 5 6 7
61 31 11 6 6 8 8 6 4 3 3 3 2 1 1 1 1 2 2 2 1 1 2 1 1 4 9 9 8 10 8 8 8 8 8 7 9 5 5 5 5 6 7 8 9
74 11 6 9 12 11 11 8 6 3 3 3 2 2 1 1 1 2 2 2 2 2 2 1 1 3 8 10 8 9 9 9 8 8 7 5 7 5 6 7 8 8 9 9 9
7 8 10 12 16 14 12 11 9 6 3 2 2 2 2 1 1 2 2 2 2 2 2 1 2 3 7 11 10 9 9 8 9 8 6 5 5 7 9 10 10 9 10 10 12
8 9 12 17 16 16 15 13 11 8 5 3 3 2 2 2 1 2 2 2 2 2 2 2 2 2 7 10 10 9 9 8 9 8 6 5 6 8 10 10 10 10 11 13 16
13 10 14 17 18 18 17 15 12 8 6 6 4 2 2 2 2 2 2 2 2 2 2 2 2 2 8 12 11 10 9 10 10 9 7 7 7 8 10 10 10 11 11 12 15
11 15 18 18 19 18 17 16 12 8 6 5 5 4 3 3 3 2 3 2 2 2 2 2 2 3 7 14 12 13 10 11 9 10 9 8 8 9 10 10 9 10 10 12 12
16 16 17 18 17 16 18 18 15 10 7 5 4 5 5 4 3 3 3 3 3 2 2 2 3 4 12 17 14 14 14 10 10 10 10 10 8 12 10 11 11 10 10 10 11
15 17 17 17 16 15 17 20 19 17 13 12 12 8 6 7 8 6 5 5 5 4 4 4 5 9 14 20 19 17 16 14 11 10 9 11 12 9 13 12 13 13 12 12 13
17 15 15 15 16 16 18 19 19 18 18 19 21 20 16 14 12 11 11 11 9 8 8 8 7 8 15 21 21 18 16 15 14 13 10 12 12 9 12 14 17 16 15 14 15
16 14 15 16 16 18 17 17 18 19 19 19 21 21 23 24 23 20 18 18 18 18 19 16 16 18 21 21 20 20 20 17 14 14 15 15 13 13 16 15 16 18 20 19 18
14 15 15 15 16 18 19 21 21 21 22 22 23 22 22 22 22 23 24 25 24 22 21 21 23 23 25 23 22 22 23 24 20 18 15 16 14 17 22 23 22 22 24 24 24
16 14 14 14 16 17 20 21 20 20 20 20 21 21 21 22 24 24 24 24 25 24 23 21 21 22 22 22 23 24 24 26 25 24 20 17 17 19 25 28 30 35 37 31 28
13 14 14 14 14 15 15 14 14 14 14 14 14 15 16 18 19 21 22 25 25 25 24 23 20 21 23 23 25 25 27 26 28 25 21 16 16 17 24 34 36 37 40 45 49
11 11 12 12 11 11 10 10 10 10 11 11 13 13 13 12 13 13 14 16 17 20 22 22 20 21 22 25 26 27 28 32 32 32 28 20 16 22 32 40 38 40 41 37 35
16 14 15 15 15 16 16 15 15 17 20 22 22 22 24 24 24 23 20 17 16 14 14 14 12 12 15 16 19 22 25 28 31 29 28 23 21 26 35 34 38 37 38 37 36
35 29 26 26 28 29 29 30 31 34 36 38 36 35 34 33 33 32 30 29 27 26 25 25 24 23 22 23 24 24 25 27 28 23 24 30 27 34 40 43 40 37 36 38 38
44 42 43 43 43 41 38 37 38 39 40 40 40 40 40 40 43 49 49 45 41 39 39 39 36 34 34 33 32 31 31 33 34 33 36 43 44 48 54 57 54 54 49 42 38
34 35 36 35 33 32 36 43 55 58 59 61 62 64 60 60 62 63 64 64 62 62 63 62 59 58 56 53 52 51 49 47 47 49 63 59 72 69 72 70 68 70 69 66 61
43 43 45 43 43 44 43 46 47 46 45 44 39 35 36 37 38 36 40 45 48 50 53 53 48 50 44 59 61 60 61 64 69 76 72 70 61 72 74 68 63 65 69 69 72
8 4 5 5 6 7 7 8 11 18 23 23 30 39 51 58 58 57 56 56 55 54 54 55 53 50 46 47 47 45 46 46 47 52 61 64 65 66 65 67 66 66 66 73 78

GFSSW_500_rhum_057.txt.gz
RH
50 43 23 16 17 27 11 30 32 3 4 1 1 1 1 2 2 3 3 3 3 3 2 2 2 2 2 2 2 2 2 2 2 3 2 3 6 9 8 6 5 6 7 8 9
15 17 13 16 13 10 24 18 5 6 3 1 1 1 1 2 2 2 2 2 2 2 2 2 2 2 2 2 3 4 4 6 6 7 8 11 14 14 13 11 8 7 8 9 9
22 10 13 14 24 33 40 17 16 5 8 2 1 1 2 2 2 2 2 2 2 2 2 2 2 2 3 6 8 10 12 11 11 11 12 13 13 14 12 10 8 9 10 8 7
23 12 18 27 22 20 18 28 25 6 3 2 2 2 2 2 2 3 2 2 2 2 1 1 1 2 5 10 11 12 11 13 12 11 11 12 13 12 10 9 10 9 8 7 5
19 32 43 32 16 18 25 17 5 10 3 2 2 2 2 2 2 3 2 2 2 1 1 1 1 1 5 9 10 9 11 10 11 9 10 11 11 12 10 10 9 7 6 5 5
17 16 8 6 11 11 17 20 12 5 3 2 2 2 2 2 2 2 2 2 2 1 1 1 1 1 3 9 10 9 10 9 9 9 9 8 10 10 6 9 6 5 5 5 5
10 27 23 30 31 24 24 8 6 6 4 3 2 2 1 2 2 2 2 2 2 1 1 1 1 1 2 5 10 9 9 10 8 8 10 8 10 7 8 6 5 4 4 5 7
36 23 25 32 37 28 6 7 7 6 4 3 3 2 1 1 1 2 2 2 2 1 1 1 2 1 1 3 8 9 8 9 8 7 7 8 12 6 6 5 5 6 6 8 8
29 15 26 65 9 6 10 9 7 5 3 3 3 2 2 1 1 1 2 2 2 2 2 2 2 2 2 2 7 10 8 8 8 7 7 8 10 8 4 6 6 8 9 9 9
48 36 56 56 12 11 14 13 12 9 7 3 3 2 2 2 1 1 1 2 2 2 2 2 2 2 1 2 6 10 10 8 8 7 7 8 7 8 5 6 9 10 10 10 10
72 93 80 15 12 18 16 16 14 11 8 6 5 2 2 2 2 1 1 2 2 2 2 2 2 2 2 2 3 8 10 10 8 8 6 8 8 8 7 7 9 10 10 10 11
70 38 10 11 15 19 20 17 17 12 9 7 6 4 3 2 2 2 2 2 2 2 2 2 2 2 2 2 3 7 9 13 11 8 7 8 9 9 8 8 9 10 10 11 11
12 11 10 11 18 20 19 18 18 14 9 7 5 5 5 4 3 3 3 2 3 3 3 3 2 2 2 2 3 9 11 12 11 10 9 8 7 13 12 10 11 11 11 11 12
38 49 16 17 28 23 19 18 19 16 11 9 6 6 5 5 5 4 3 3 3 3 3 3 3 2 3 4 5 9 15 15 15 13 10 14 6 10 14 13 13 13 13 13 12
13 17 40 62 22 19 17 17 21 20 18 16 15 14 12 8 7 7 8 7 7 7 7 7 6 6 6 6 6 8 14 17 16 14 11 14 13 15 13 16 15 16 17 16 16
64 47 18 18 18 17 17 17 19 19 18 18 19 18 18 18 18 19 17 15 15 15 15 15 13 12 10 12 14 17 18 17 16 15 15 15 15 18 18 18 19 19 18 18 19
20 19 18 17 18 18 18 18 19 20 19 18 18 19 18 18 19 20 22 22 22 20 22 22 21 20 21 22 23 23 22 20 16 16 16 15 14 18 20 25 27 26 27 27 24
19 19 19 18 20 19 20 20 21 20 20 20 20 21 20 20 21 22 23 24 23 21 21 21 22 23 24 24 24 24 23 23 22 19 15 17 16 19 24 31 30 28 30 33 32
19 17 17 17 17 17 17 18 20 20 20 19 18 18 18 18 18 19 20 21 22 22 22 20 20 22 23 24 24 24 24 23 23 22 18 16 15 18 24 34 30 29 27 27 27
17 17 16 17 16 16 16 16 16 16 14 13 13 13 12 12 12 13 14 15 15 16 16 15 14 16 19 22 24 25 25 23 23 20 17 13 16 19 26 29 28 28 27 29 32
16 16 16 15 14 14 13 13 12 10 10 10 10 11 13 14 16 17 18 19 19 19 18 18 18 18 19 19 20 20 22 22 21 23 22 22 25 26 32 34 33 34 36 35 32
11 11 12 11 10 10 11 11 12 13 14 15 19 23 26 30 32 32 31 31 31 30 30 30 30 30 29 29 29 28 28 29 29 27 27 26 25 33 44 49 50 48 50 55 59
17 16 18 18 20 22 24 25 26 26 29 30 34 37 39 40 42 42 40 39 40 43 47 50 50 51 53 52 51 48 45 43 42 44 47 52 42 58 71 74 71 63 61 62 62
36 38 38 39 41 40 39 38 38 40 40 40 41 44 46 50 53 52 55 55 58 62 64 64 62 63 60 59 58 57 60 62 64 67 75 56 61 59 70 61 48 48 57 60 61
47 46 48 51 48 42 36 35 37 37 37 39 42 45 44 43 44 43 43 42 42 42 42 40 38 40 40 41 43 43 45 49 51 55 54 46 56 51 53 50 48 59 64 61 56
37 37 36 33 35 42 43 45 45 44 41 38 35 32 32 36 35 31 40 53 54 56 61 57 47 46 26 49 53 35 38 59 62 64 62 63 64 72 71 67 68 70 60 47 34
55 57 53 47 38 22 18 12 7 6 6 5 5 5 6 8 10 8 7 6 6 6 7 5 4 4 3 6 6 6 23 20 22 40 47 51 60 66 64 60 52 45 35 19 12

GFSSW_500_rhum_063.txt.gz
RH
78 84 82 66 25 23 40 48 26 38 21 48 13 6 1 1 2 3 3 3 3 3 3 3 2 2 2 2 3 4 5 6 5 6 4 4 4 4 8 11 12 10 9 8 7
78 88 69 47 20 26 34 29 34 37 27 22 20 14 1 1 2 2 3 3 3 3 3 2 2 2 2 2 4 7 9 10 10 10 10 10 10 10 12 12 12 10 10 8 8
78 81 62 33 17 14 19 17 28 27 24 21 18 12 2 1 2 2 3 3 2 3 2 2 2 1 1 1 4 8 9 10 10 10 10 10 10 10 11 13 8 10 8 8 9
93 89 72 49 32 18 12 10 11 12 16 17 19 18 2 1 2 2 2 2 2 2 2 2 2 1 1 1 2 6 8 9 8 8 8 8 8 8 10 8 7 10 8 8 7
90 85 49 47 46 30 12 9 27 20 8 11 10 4 2 2 2 2 3 2 2 2 2 2 1 1 1 1 1 2 7 8 8 7 8 7 7 7 7 4 7 8 6 6 6
90 90 33 12 10 10 8 9 22 15 14 17 11 5 4 2 2 2 2 3 3 2 2 2 2 1 1 2 2 2 2 5 7 7 7 8 8 7 6 6 6 6 5 5 5
74 95 46 13 10 6 5 6 8 11 12 7 6 5 4 2 2 2 2 2 2 3 2 2 2 1 1 1 2 2 2 3 6 7 7 8 10 7 6 7 6 5 5 4 5
68 89 51 14 10 8 6 7 8 10 10 8 7 6 4 3 2 2 2 2 2 2 2 2 2 2 1 1 2 2 2 2 4 6 9 8 11 8 7 6 6 5 4 4 5
69 70 70 51 8 7 7 8 11 13 10 8 7 5 5 4 3 3 2 2 2 2 2 2 2 2 2 2 2 2 2 2 2 3 4 8 12 9 6 6 8 6 5 5 6
62 75 66 55 34 12 13 13 14 12 9 8 6 5 6 4 4 4 3 2 2 1 2 2 2 2 2 2 2 2 2 2 2 2 2 6 10 12 8 6 7 9 7 6 7
47 40 68 50 43 16 27 76 36 17 14 11 10 8 7 6 4 3 3 3 2 2 2 2 2 2 2 2 2 2 2 2 2 2 2 5 10 9 11 9 8 8 9 8 8
33 18 35 26 17 37 69 94 76 20 16 14 13 10 8 7 6 4 3 3 2 2 2 2 2 2 2 3 3 2 2 2 2 3 3 5 14 12 13 13 12 9 9 10 10
25 45 23 26 43 68 68 65 33 21 18 16 14 9 7 6 5 5 5 4 4 3 4 4 3 3 3 3 3 3 4 4 4 5 5 6 15 19 16 16 15 14 12 11 10
50 42 75 98 77 83 65 26 22 22 20 23 19 13 10 9 7 6 6 6 6 7 8 7 7 8 8 8 8 8 9 10 11 11 13 14 14 19 17 16 17 17 16 15 16
71 62 66 72 73 36 22 27 28 21 43 31 18 18 16 15 15 13 14 14 14 15 16 14 16 16 16 16 16 17 17 18 19 19 18 19 19 20 18 17 19 19 18 20 20
64 68 73 75 44 18 42 36 25 56 24 19 20 19 17 15 16 17 17 18 19 21 21 21 21 21 21 21 21 21 21 20 20 20 19 18 18 20 18 18 17 16 18 18 19
55 59 46 32 22 21 56 32 58 32 20 18 19 19 17 18 18 18 17 18 18 19 20 22 22 21 22 22 22 22 21 19 16 14 14 14 14 18 18 17 16 18 17 19 21
45 32 24 34 25 26 33 27 19 19 21 22 22 20 18 19 20 20 19 18 18 18 18 17 16 16 16 16 15 15 15 17 18 21 24 25 26 30 32 29 30 29 29 27 28
62 45 27 36 52 59 30 41 27 22 23 23 21 19 20 20 18 17 17 16 14 14 14 14 16 18 22 25 27 28 30 31 34 36 40 43 44 45 52 49 47 51 52 48 53
36 33 32 34 29 25 23 22 22 24 22 21 20 20 20 17 14 13 11 12 14 19 25 29 32 34 34 35 37 42 51 54 56 56 56 56 55 45 46 43 41 38 37 37 46
55 34 33 39 29 27 32 25 21 20 20 19 19 17 15 12 11 11 14 19 27 35 39 42 43 43 43 44 49 52 55 55 51 46 43 39 37 39 38 45 36 26 7 24 42
72 42 55 74 54 24 20 21 21 20 18 18 16 14 11 11 15 20 27 32 35 38 42 46 46 49 50 50 50 48 43 43 44 49 42 29 12 13 15 20 29 10 4 9 12
86 72 66 38 30 21 21 20 19 18 17 14 12 14 20 25 30 34 38 41 42 47 45 40 34 33 33 32 28 23 20 14 8 5 7 8 8 14 13 9 8 7 6 6 5
64 35 33 26 23 22 20 18 17 14 13 16 23 28 33 38 41 40 39 36 36 36 27 12 6 5 4 6 5 5 6 5 4 5 9 14 14 14 12 10 10 10 9 8 6
86 81 58 21 20 18 15 14 17 21 27 34 40 45 43 36 36 35 35 29 17 9 11 18 23 24 23 23 22 21 17 20 20 19 16 12 12 12 9 10 8 8 7 6 5
27 22 19 18 19 18 18 24 35 46 53 55 51 40 38 40 35 21 6 7 18 30 34 32 29 23 18 19 11 7 18 14 10 14 9 8 8 7 9 10 11 9 8 6 6
66 48 45 41 39 42 48 56 60 57 53 48 39 42 38 18 6 7 23 37 39 35 20 10 9 7 7 8 6 7 11 11 10 10 10 10 11 12 13 13 13 12 12 11 7

GFSSW_500_rhum_066.txt.gz
RH
85 92 88 88 82 59 28 17 28 25 33 22 45 19 7 1 1 2 2 3 3 3 3 3 2 3 2 2 2 3 6 8 8 9 8 8 8 7 5 6 10 11 10 10 10
90 81 86 84 86 66 26 22 39 27 34 20 35 27 18 2 1 2 2 3 3 3 3 3 2 2 2 2 2 3 7 9 9 9 10 9 8 9 9 10 10 8 9 11 9
92 80 75 81 59 43 20 28 32 23 29 24 13 20 10 3 1 1 2 3 3 3 3 2 2 2 1 1 1 2 5 9 8 8 8 8 7 6 8 11 5 8 10 11 7
94 68 77 78 38 19 17 20 18 15 18 22 14 15 21 14 4 2 2 2 3 3 2 2 2 2 1 1 1 1 2 5 8 8 7 7 7 8 7 5 6 8 10 7 9
83 90 86 66 53 31 18 12 11 8 7 10 14 12 14 10 3 2 2 2 2 2 2 2 2 2 1 1 2 2 2 2 3 6 7 8 8 7 7 6 6 6 7 4 8
98 96 94 79 74 39 32 17 8 5 11 13 8 11 12 9 5 3 2 3 3 3 2 2 2 2 2 1 1 2 2 2 2 3 7 9 8 6 6 6 7 6 6 6 4
96 94 96 95 29 18 20 19 7 6 14 12 13 13 8 7 5 3 2 2 2 2 3 3 2 2 2 2 1 1 2 2 2 2 3 7 10 7 5 5 6 7 7 6 5
77 85 87 93 34 12 10 6 6 7 8 10 9 9 9 8 5 4 3 2 2 2 2 2 3 2 2 2 2 2 2 2 2 2 2 2 10 4 3 4 6 6 6 7 6
94 72 54 85 79 12 8 6 6 8 8 9 10 10 9 7 6 5 4 3 3 2 2 2 2 2 2 2 2 2 2 2 2 2 2 2 6 4 2 2 6 6 7 7 7
93 71 61 56 58 21 8 8 9 10 10 10 9 14 13 9 6 5 4 4 3 2 2 2 2 2 2 2 2 2 2 2 2 2 2 2 2 3 5 3 4 6 8 8 8
90 65 52 69 55 58 27 16 13 12 11 14 14 10 10 9 7 6 4 3 3 3 2 2 2 2 2 1 1 2 2 2 2 2 2 2 3 3 4 6 7 10 11 11 10
65 68 36 62 54 38 43 34 48 37 26 27 62 15 12 10 7 6 6 5 3 3 3 3 2 2 2 2 2 2 3 3 4 3 4 6 6 5 5 8 14 15 14 14 14
69 57 37 56 43 32 42 56 91 91 87 43 27 15 12 9 6 6 5 5 5 4 4 4 3 3 4 4 4 6 6 7 8 10 12 14 16 17 15 15 15 16 16 16 16
79 41 33 22 29 22 34 54 77 79 30 23 22 21 19 12 12 8 7 6 6 7 7 8 8 10 10 12 13 15 16 16 17 17 17 18 18 20 19 16 15 16 17 17 17
70 56 44 47 51 66 65 50 53 44 29 26 28 26 21 15 14 14 13 14 16 17 16 18 21 20 19 20 19 20 19 18 18 18 17 18 18 19 19 17 17 15 15 16 17
68 70 63 64 57 69 83 77 47 27 27 31 30 24 19 18 18 17 17 18 21 21 19 19 19 20 20 19 19 19 19 18 16 14 14 14 18 22 22 23 23 25 26 29 33
70 72 69 68 75 76 78 30 26 33 35 37 30 19 20 20 19 20 20 21 21 22 19 21 20 18 16 15 14 14 15 15 18 23 27 30 31 41 45 49 47 48 49 46 46
59 57 62 62 69 77 27 21 44 35 39 56 22 23 22 22 22 21 21 20 19 17 16 15 13 14 15 17 22 27 28 30 31 38 46 50 51 51 49 43 40 35 31 27 25
74 79 44 30 29 35 25 24 34 60 61 25 23 25 24 23 22 22 19 17 16 14 13 12 17 25 32 36 39 39 40 43 46 50 49 44 39 35 40 37 30 22 17 11 8
74 65 63 36 33 32 31 33 36 30 30 26 24 25 24 22 22 21 15 13 13 13 16 24 33 39 40 41 43 45 47 50 52 50 43 37 37 41 36 29 24 17 8 9 10
58 40 58 41 35 34 37 65 68 34 44 24 25 23 22 20 18 15 12 11 14 21 29 36 38 41 42 42 42 36 35 40 39 46 41 22 8 13 13 14 13 12 10 9 7
42 40 41 39 31 32 32 30 31 34 25 23 22 21 20 18 14 11 13 20 29 34 39 43 41 37 30 16 10 6 10 17 16 13 7 5 8 15 16 14 12 9 9 10 11
54 40 44 45 36 37 52 49 63 72 32 20 20 20 18 14 13 20 29 37 40 44 40 37 31 22 5 6 7 6 7 15 13 12 15 16 16 14 10 7 10 11 11 11 12
57 46 60 66 52 56 69 82 46 24 23 21 19 18 14 17 25 32 44 46 40 38 37 29 16 10 19 24 25 23 24 20 12 9 6 12 7 10 8 9 13 15 15 15 15
82 51 57 76 70 79 84 57 28 23 21 19 16 15 23 31 45 52 40 38 40 35 11 6 21 30 28 27 20 12 15 8 10 10 10 10 11 11 11 11 13 14 15 18 20
85 72 88 96 56 54 46 24 24 20 17 19 21 31 52 58 51 43 43 39 18 7 15 32 32 21 6 11 7 6 11 12 12 12 11 11 10 11 15 18 21 21 20 20 24
95 96 95 94 91 85 40 23 23 29 25 33 46 60 59 53 44 44 36 8 10 32 40 38 22 7 5 8 7 8 12 12 12 10 9 9 10 14 21 21 25 30 27 27 27

GFSSW_500_rhum_069.txt.gz
RH
92 79 86 96 92 87 70 45 24 16 22 30 33 39 14 4 2 5 2 3 4 3 3 3 3 3 3 2 2 2 4 8 8 8 10 7 7 7 8 7 7 7 8 10 12
91 87 90 97 93 90 81 59 23 18 29 29 28 36 32 17 6 1 2 3 3 3 3 3 3 2 2 2 1 1 2 6 7 7 8 8 7 6 6 9 6 6 9 10 11
88 90 91 92 84 86 88 72 28 22 34 24 29 24 28 20 4 2 2 2 3 4 3 3 3 2 2 1 1 1 1 2 4 7 7 7 8 7 6 6 4 6 7 10 10
80 83 89 93 74 75 73 55 21 28 30 21 26 21 14 21 10 7 2 2 3 3 3 3 2 2 2 1 1 2 2 2 2 2 6 8 8 8 6 6 6 6 4 7 8
66 67 73 85 55 70 40 24 16 24 20 14 19 18 16 19 13 6 4 2 2 2 3 2 2 2 2 2 2 1 2 2 2 2 2 7 7 7 6 6 6 6 6 6 6
76 73 90 90 75 74 68 20 14 11 9 8 8 8 17 11 10 9 4 2 2 3 2 2 3 2 2 2 2 1 1 1 2 2 2 4 4 3 5 6 6 6 7 6 7
85 98 99 92 96 86 86 73 32 18 8 6 6 11 10 13 11 8 6 4 2 2 2 3 3 3 3 2 2 2 2 1 2 2 2 2 3 2 1 2 5 5 6 6 7
90 85 95 88 88 95 36 42 53 50 18 10 11 10 11 9 9 7 5 4 3 2 2 2 2 2 2 3 2 2 2 2 2 2 2 2 4 2 2 2 2 3 4 6 7
98 85 86 79 78 72 86 11 8 9 11 7 10 9 9 10 10 8 6 5 4 3 2 2 2 2 2 2 2 2 2 2 2 2 2 2 2 2 2 2 2 3 4 5 6
80 91 92 75 59 53 60 21 7 7 7 8 9 9 11 12 12 9 7 5 4 3 3 2 2 1 1 1 1 1 1 1 1 2 2 2 2 2 2 3 3 4 8 10 11
74 91 87 70 52 59 20 30 20 13 10 11 11 13 14 12 10 8 7 6 4 3 3 3 2 2 2 2 2 2 2 2 2 2 3 3 3 3 4 6 7 10 12 14 14
76 89 86 59 59 40 53 21 16 17 14 15 24 52 36 21 12 9 7 6 6 4 3 3 3 3 3 2 3 3 3 4 6 6 7 11 10 11 13 14 16 17 18 17 17
80 73 69 58 52 59 36 55 43 35 29 41 52 71 81 36 10 7 6 6 5 5 5 5 4 5 5 6 8 9 10 13 14 16 17 16 17 16 17 16 17 17 17 17 17
75 76 53 44 38 55 46 56 56 56 71 80 72 29 20 18 14 12 9 13 7 7 8 9 10 12 14 16 16 18 18 18 17 16 17 15 15 14 13 12 14 15 16 20 23
77 72 70 37 32 58 38 23 36 50 56 62 32 26 26 25 19 15 14 12 13 17 18 21 17 16 17 17 17 18 18 16 15 14 14 15 17 19 19 22 28 29 35 43 48
76 71 72 57 49 43 32 32 46 55 54 48 32 30 29 23 21 19 18 17 21 21 20 17 18 18 18 17 15 14 14 14 15 19 23 27 34 45 41 46 45 45 44 43 42
75 78 68 67 53 52 58 65 69 69 65 42 31 34 24 23 22 20 19 20 21 21 19 18 17 15 14 14 15 18 24 30 34 36 39 41 45 50 48 44 40 35 29 27 24
81 68 69 73 70 70 72 65 70 68 32 31 36 38 28 20 22 22 22 21 21 20 18 17 15 15 16 22 33 38 40 40 42 42 43 50 52 49 43 35 23 15 12 10 11
78 68 61 74 73 66 64 70 72 43 27 37 38 53 33 24 26 24 21 21 20 17 15 12 13 19 30 36 38 41 42 44 37 38 30 35 39 41 22 10 9 10 12 11 9
63 63 60 59 62 60 61 58 56 25 29 47 56 52 26 26 25 23 21 21 17 14 13 14 20 31 36 40 42 43 33 30 19 16 14 16 11 11 9 12 14 13 8 7 8
63 57 68 70 74 36 30 34 33 29 29 32 42 60 34 25 25 22 20 18 14 12 13 24 32 39 42 40 35 23 9 7 7 8 6 6 15 14 16 9 10 11 11 13 13
51 52 63 70 68 60 40 37 37 42 48 48 48 55 40 24 22 20 17 13 13 18 29 37 40 39 36 33 20 5 7 11 14 16 16 16 16 14 9 10 11 10 12 13 11
69 59 60 65 53 61 48 34 34 37 39 41 34 34 25 22 20 20 16 15 21 32 40 44 36 35 31 20 12 21 26 24 22 12 16 11 12 12 10 12 13 16 15 15 16
82 78 63 50 43 48 48 34 34 41 40 41 56 52 24 22 20 17 14 22 32 46 42 37 37 25 7 16 28 27 27 22 9 8 8 15 8 10 8 10 10 12 20 20 20
84 75 63 48 41 43 45 40 43 56 58 69 71 37 24 21 18 16 20 31 52 43 41 41 18 8 23 31 26 10 19 13 11 10 9 11 9 10 12 11 13 15 15 16 21
98 97 77 78 50 47 65 62 64 71 77 75 29 25 20 17 21 23 47 56 48 43 45 21 8 24 34 28 12 6 10 10 12 13 13 12 10 10 11 13 16 15 16 20 20
100 100 92 95 74 57 86 83 70 77 84 37 25 22 21 27 34 50 60 54 46 45 20 10 36 38 32 16 7 7 8 11 14 13 12 10 10 11 14 13 12 16 20 20 20